Regional Weather Roundup
Issued by NWS

Home | Current Version | Previous Version | Graphics & Text | Print | Product List | Glossary On
Versions: 1 2 3 4 5 6 7 8 9 10 11 12 13 14 15 16 17 18 19 20 21 22 23 24 25 26 27 28 29 30 31 32 33 34 35 36 37 38 39 40 41 42 43 44 45 46 47 48 49 50
000
ASUS43 KDMX 300007
RWRIA

WEATHER ROUNDUP FOR IOWA
NATIONAL WEATHER SERVICE DES MOINES IA
700 PM CDT MON JUN 29 2015

NOTE: "FAIR" INDICATES FEW OR NO CLOUDS BELOW 12,000 FEET WITH NO
SIGNIFICANT WEATHER AND/OR OBSTRUCTIONS TO VISIBILITY.

* - THESE STATIONS ARE NOT NWS STATIONS...THUS NOT UNDER NWS
QUALITY CONTROL.  THEY ALSO DO NOT REPORT WEATHER SUCH
AS PRECIPITATION OR FOG.

IAZ001>003-012>014-020>022-031>034-043>046-300100-
   NORTHWEST IOWA

CITY           SKY/WX    TMP DP  RH WIND       PRES   REMARKS
CARROLL *      SUNNY     79  63  57 NW6       29.89S HX  80
CHEROKEE *     SUNNY     77  63  62 NW5       29.89S
DENISON *      SUNNY     77  64  65 CALM      29.89S
LE MARS *      SUNNY     79  64  61 NW5       29.91S HX  81
ORANGE CITY *  SUNNY     75  63  64 NW7       29.90F
SHELDON *      SUNNY     77  63  61 NW7       29.88F
SIOUX CITY     SUNNY     82  60  47 NW7       29.90F HX  82
6HR MIN TEMP:  82; 6HR MAX TEMP:  86;

SPENCER        SUNNY     77  65  66 W7        29.88F HAZE
6HR MIN TEMP:  77; 6HR MAX TEMP:  84;

STORM LAKE *   SUNNY     77  64  65 NW7       29.91S
$$

IAZ055>058-069>071-079>083-090>094-300100-
   SOUTHWEST IOWA

CITY           SKY/WX    TMP DP  RH WIND       PRES   REMARKS
ATLANTIC *     SUNNY     79  61  53 NW6       29.91S HX  80
AUDUBON *      SUNNY     79  63  57 NW3       29.92R HX  80
CLARINDA *     SUNNY     82  70  65 N8        29.91S HX  86
COUNCIL BLFS * SUNNY     81  64  57 N5        29.92S HX  82
CRESTON *      SUNNY     79  63  57 NW12      29.90S HX  80
HARLAN  *      SUNNY     77  68  73 NW5       29.94S
LAMONI         SUNNY     79  67  66 NW6       29.89S HX  81
6HR MIN TEMP:  79; 6HR MAX TEMP:  84;

RED OAK *      SUNNY     81  64  57 N6        29.90F HX  82
SHENANDOAH *   SUNNY     82  64  54 N5        29.90F HX  84
$$

IAZ047>049-059>061-072>074-084-300100-
   CENTRAL IOWA

CITY           SKY/WX    TMP DP  RH WIND       PRES   REMARKS
AMES           SUNNY     78  66  66 W6        29.85F HX  80
6HR MIN TEMP:  78; 6HR MAX TEMP:  81;

ANKENY *       SUNNY     79  66  65 W9        29.86R HX  81
CHARITON *     SUNNY     77  68  73 MISG      29.87S
DES MOINES     CLOUDY    80  63  55 NW8       29.86S HX  81
6HR MIN TEMP:  80; 6HR MAX TEMP:  83;

GRINNELL*      SUNNY     76  66  71 W6        29.86R
KNOXVILLE *    SUNNY     77  66  69 W5        29.85S
MARSHALLTOWN   SUNNY     76  66  71 W8        29.83S
6HR MIN TEMP:  76; 6HR MAX TEMP:  81;

PELLA *        SUNNY     78  70  77 W5        29.86S HX  80
PERRY *          N/A     79  64  61 W6        29.87F HX  81
$$

IAZ004>006-015-016-023>025-035-036-300100-
   NORTH CENTRAL IOWA

CITY           SKY/WX    TMP DP  RH WIND       PRES   REMARKS
ALGONA *       SUNNY     79  64  61 W7        29.86F HX  81
CLARION *      SUNNY     79  64  61 W6        29.85S HX  81
ESTHERVILLE    SUNNY     77  62  59 W9        29.86F
6HR MIN TEMP:  77; 6HR MAX TEMP:  80;

FORT DODGE *   SUNNY     77  63  61 W5        29.87F
MASON CITY     MOSUNNY   77  65  66 W9        29.85F
6HR MIN TEMP:  77; 6HR MAX TEMP:  82;

FOREST CITY *  SUNNY     73  63  68 W7        29.84F
IOWA FALLS *     N/A     77  66  69 W6        29.86S
$$

IAZ007>011-017>019-026>030-037>042-050>054-066-300100-
   NORTHEAST IOWA

CITY           SKY/WX    TMP DP  RH WIND       PRES   REMARKS
CEDAR RAPIDS   MOSUNNY   78  66  66 NW9       29.81R HX  80
6HR MIN TEMP:  77; 6HR MAX TEMP:  82;

CHARLES CITY * SUNNY     75  68  78 NW8       29.82S
CLINTON *      MOSUNNY   75  66  73 W6        29.83R
DECORAH *        N/A    N/A N/A N/A MISG        N/A
DUBUQUE        MOSUNNY   75  65  70 W3        29.81S
6HR MIN TEMP:  74; 6HR MAX TEMP:  80;

MONTICELLO *   LGT RAIN  68 -38   1 NW6       29.81S
OELWEIN *      SUNNY     77  66  69 W6        29.82S
WATERLOO       MOSUNNY   78  65  63 W6        29.80S HX  80
6HR MIN TEMP:  78; 6HR MAX TEMP:  84;

$$

IAZ064-065-067-068-078-300100-
   EAST CENTRAL IOWA

CITY           SKY/WX    TMP DP  RH WIND       PRES   REMARKS
DAVENPORT      MOSUNNY   75  67  76 N5        29.82R
6HR MIN TEMP:  73; 6HR MAX TEMP:  80; 6HR PCP: TRACE;

IOWA CITY      MOSUNNY   80  65  59 W9        29.82R HX  82
6HR MIN TEMP:  78; 6HR MAX TEMP:  82;

MT. PLEASANT * PTSUNNY   80  61  53 NW7       29.84R HX  81
MUSCATINE *    SUNNY     81  66  61 W7        29.81S HX  83
QUAD CITIES    TSTM      76  66  71 CALM      29.80R
6HR MIN TEMP:  72; 6HR MAX TEMP:  81; 6HR PCP:  0.02;

$$

IAZ062-063-075>077-085>089-095>099-300100-
   SOUTHEAST IOWA

CITY           SKY/WX    TMP DP  RH WIND       PRES   REMARKS
BURLINGTON     PTSUNNY   73  72  96 SW3       29.83S
6HR MIN TEMP:  71; 6HR MAX TEMP:  82; 6HR PCP:  0.09;

FAIRFIELD *    MOSUNNY   75  63  64 N5        29.85R
FORT MADISON * SUNNY     75  68  78 CALM      29.85R
KEOKUK *       SUNNY     79  70  73 W5        29.83R HX  81
OSKALOOSA *      N/A     76  67  73 NW5       29.86R
CENTERVILLE *  SUNNY     75  66  73 NW5       29.88S
OTTUMWA        SUNNY     77  67  71 W6        29.84R
6HR MIN TEMP:  77; 6HR MAX TEMP:  82;

WASHINGTON *   SUNNY     72  63  73 SW6       29.85S
$$

ABBREVIATIONS USED IN REMARKS
   TC - TEMPERATURES IN CELSIUS
  WCI - WIND CHILL INDEX
   HX - HEAT INDEX
  VSB - VISIBILITY
$$



USA.gov is the U.S. government's official web portal to all federal, state and local government web resources and services.